Find Starlink 37029

NORAD ID: 68271 Int'l Des: 2026-055 Owner: SPXS Country: US Constellation: starlink operational
LEOCIRCULAR

現在のビュー

3D地球を読み込み中...

About Starlink 37029

Starlink 37029 (NORAD 68271) is a starlink constellation satellite (v2 mini) launched Mar 19, 2026 by SPXS of US. It operates in LEO, CIRCULAR orbit with a mass of 575.00 kg.

Starlink 37029について

説明を読み込み中...

次回通過

Passes for default location (London). Set your location on the main map for personalized predictions.

高度履歴

Loading altitude history...

軌道要素

1 68271U 26055K 26169.83517432 .00016614 00000-0 50165-3 0 9997
2 68271 53.1587 207.5553 0001466 42.6405 317.4712 15.34405763 15447
Epoch: Jun 18, 2026 • Age: 4 hours

現在のステータス

高度 481.8 km
速度 7.62 km/s
衛星直下点 -53.19°S, 150.41°W
打ち上げ日 Mar 19, 2026
運用期間 0.2 years
タイプ internet

技術仕様

分類 Payload
質量 575.00 kg
乾燥質量 530.00 kg
総質量 575.00 kg
長さ 0.30 m
直径 4.10 m
スパン 29.00 m
形状 Box + pan
製造者 SPXS
バスタイプ Starlink V2MO
フェーズステータス In Orbit
所有者/国 SPXS/US

Most Searched